QPF
0.01 0.01 0.01 0.01 0.01 0.00 0.01 0.01 0.02 0.02 0.01 0.02 0.02 0.02 0.02 0.01 0.02 0.02 0.02 0.01 0.01 0.01 0.01 0.01 0.02 0.02 0.03 0.03 0.03 0.03 0.03 0.03 0.03 0.02 0.02 0.02 0.02 0.02 0.01 0.01 0.01 0.01 0.01 0.01
0.01 0.01 0.01 0.01 0.00 0.01 0.01 0.01 0.01 0.01 0.02 0.02 0.01 0.02 0.02 0.01 0.01 0.02 0.02 0.02 0.01 0.01 0.01 0.02 0.02 0.03 0.03 0.04 0.04 0.04 0.04 0.03 0.02 0.02 0.02 0.01 0.01 0.01 0.01 0.01 0.01 0.01 0.01 0.01
0.02 0.01 0.02 0.02 0.02 0.01 0.01 0.01 0.01 0.01 0.02 0.01 0.01 0.01 0.02 0.02 0.02 0.02 0.02 0.02 0.02 0.02 0.02 0.02 0.02 0.03 0.03 0.04 0.04 0.04 0.04 0.03 0.03 0.02 0.02 0.01 0.01 0.01 0.01 0.01 0.01 0.01 0.01 0.01
0.02 0.02 0.03 0.03 0.02 0.02 0.01 0.01 0.01 0.01 0.01 0.01 0.01 0.02 0.02 0.02 0.02 0.02 0.02 0.02 0.03 0.02 0.02 0.02 0.02 0.02 0.03 0.03 0.04 0.04 0.04 0.04 0.03 0.03 0.02 0.02 0.01 0.01 0.01 0.01 0.01 0.01 0.01 0.01
0.03 0.03 0.02 0.01 0.01 0.02 0.02 0.01 0.01 0.01 0.01 0.01 0.01 0.01 0.02 0.01 0.02 0.03 0.03 0.03 0.03 0.03 0.03 0.02 0.02 0.02 0.02 0.03 0.04 0.04 0.04 0.04 0.04 0.04 0.03 0.03 0.03 0.02 0.01 0.01 0.01 0.01 0.01 0.01
0.03 0.03 0.02 0.01 0.01 0.01 0.02 0.03 0.01 0.01 0.01 0.01 0.01 0.01 0.02 0.01 0.01 0.02 0.02 0.02 0.03 0.02 0.02 0.02 0.03 0.02 0.02 0.03 0.04 0.04 0.04 0.04 0.04 0.04 0.04 0.04 0.03 0.02 0.02 0.01 0.02 0.02 0.02 0.02
0.02 0.03 0.02 0.01 0.01 0.01 0.02 0.04 0.01 0.01 0.01 0.01 0.01 0.02 0.01 0.01 0.01 0.01 0.01 0.02 0.02 0.02 0.02 0.02 0.03 0.03 0.03 0.03 0.04 0.04 0.04 0.04 0.04 0.04 0.04 0.04 0.04 0.03 0.02 0.02 0.02 0.01 0.02 0.02
0.02 0.03 0.02 0.01 0.01 0.02 0.03 0.02 0.01 0.01 0.01 0.01 0.01 0.01 0.00 0.00 0.01 0.01 0.01 0.01 0.01 0.01 0.02 0.02 0.03 0.03 0.03 0.03 0.04 0.03 0.03 0.03 0.03 0.03 0.03 0.03 0.03 0.03 0.02 0.02 0.02 0.02 0.02 0.01
0.02 0.02 0.01 0.01 0.02 0.02 0.02 0.02 0.01 0.00 0.00 0.00 0.00 0.00 0.00 0.00 0.00 0.00 0.00 0.01 0.01 0.01 0.01 0.02 0.02 0.03 0.03 0.03 0.03 0.03 0.02 0.02 0.02 0.02 0.02 0.02 0.03 0.03 0.02 0.02 0.02 0.02 0.02 0.01
0.01 0.01 0.01 0.01 0.01 0.01 0.01 0.02 0.01 0.01 0.01 0.00 0.00 0.00 0.00 0.00 0.00 0.00 0.00 0.00 0.01 0.01 0.01 0.01 0.02 0.02 0.03 0.03 0.02 0.02 0.02 0.02 0.02 0.01 0.01 0.01 0.02 0.02 0.03 0.03 0.02 0.02 0.02 0.02
0.01 0.01 0.00 0.00 0.01 0.01 0.01 0.01 0.01 0.01 0.01 0.01 0.01 0.00 0.00 0.00 0.01 0.01 0.01 0.01 0.01 0.01 0.01 0.02 0.02 0.02 0.02 0.02 0.02 0.02 0.02 0.02 0.01 0.01 0.01 0.01 0.01 0.01 0.02 0.02 0.03 0.03 0.03 0.02
0.01 0.01 0.02 0.01 0.01 0.01 0.01 0.01 0.02 0.02 0.02 0.01 0.01 0.01 0.01 0.01 0.01 0.01 0.01 0.01 0.01 0.01 0.01 0.02 0.02 0.02 0.02 0.02 0.02 0.01 0.01 0.01 0.01 0.01 0.01 0.01 0.01 0.01 0.01 0.02 0.02 0.02 0.02 0.02
0.01 0.01 0.02 0.02 0.01 0.01 0.01 0.01 0.02 0.02 0.02 0.01 0.01 0.01 0.01 0.01 0.01 0.01 0.01 0.01 0.01 0.01 0.02 0.02 0.02 0.03 0.03 0.02 0.02 0.02 0.02 0.01 0.01 0.01 0.01 0.01 0.01 0.01 0.01 0.01 0.01 0.01 0.01 0.01
0.02 0.02 0.02 0.02 0.02 0.02 0.01 0.01 0.01 0.01 0.02 0.02 0.01 0.01 0.01 0.01 0.01 0.01 0.01 0.01 0.01 0.01 0.01 0.02 0.02 0.02 0.02 0.02 0.02 0.02 0.02 0.02 0.02 0.01 0.01 0.01 0.01 0.01 0.01 0.01 0.01 0.01 0.01 0.01
0.01 0.02 0.02 0.02 0.02 0.02 0.02 0.01 0.01 0.01 0.01 0.02 0.02 0.01 0.01 0.01 0.01 0.01 0.01 0.01 0.01 0.01 0.01 0.01 0.02 0.02 0.02 0.02 0.02 0.02 0.02 0.02 0.02 0.02 0.02 0.01 0.01 0.01 0.01 0.01 0.01 0.01 0.01 0.01
0.01 0.02 0.02 0.02 0.02 0.02 0.01 0.01 0.01 0.01 0.01 0.01 0.02 0.02 0.01 0.01 0.01 0.01 0.01 0.01 0.01 0.01 0.02 0.02 0.02 0.02 0.02 0.02 0.02 0.02 0.01 0.01 0.01 0.02 0.02 0.01 0.01 0.01 0.01 0.01 0.01 0.01 0.01 0.01
0.01 0.01 0.01 0.01 0.01 0.01 0.01 0.01 0.02 0.01 0.01 0.01 0.01 0.01 0.01 0.01 0.01 0.01 0.01 0.01 0.01 0.01 0.01 0.02 0.02 0.02 0.02 0.01 0.01 0.01 0.01 0.01 0.01 0.01 0.01 0.01 0.01 0.01 0.01 0.01 0.01 0.01 0.01 0.01
0.01 0.01 0.01 0.02 0.01 0.02 0.02 0.02 0.02 0.02 0.02 0.02 0.02 0.02 0.01 0.01 0.01 0.01 0.01 0.00 0.00 0.00 0.01 0.01 0.01 0.01 0.01 0.01 0.01 0.01 0.01 0.01 0.01 0.01 0.01 0.01 0.02 0.02 0.02 0.02 0.02 0.01 0.01 0.01
0.01 0.01 0.01 0.01 0.01 0.02 0.02 0.02 0.02 0.02 0.02 0.02 0.02 0.01 0.01 0.01 0.01 0.01 0.01 0.00 0.00 0.00 0.01 0.01 0.01 0.01 0.01 0.01 0.01 0.01 0.01 0.02 0.02 0.02 0.02 0.02 0.02 0.02 0.02 0.02 0.02 0.02 0.01 0.01
0.01 0.01 0.01 0.01 0.01 0.02 0.02 0.02 0.02 0.02 0.02 0.01 0.01 0.01 0.01 0.00 0.00 0.01 0.01 0.01 0.00 0.00 0.01 0.01 0.01 0.01 0.01 0.01 0.01 0.01 0.01 0.02 0.02 0.02 0.02 0.02 0.02 0.02 0.02 0.02 0.02 0.02 0.01 0.01
0.00 0.01 0.01 0.01 0.01 0.01 0.01 0.01 0.01 0.01 0.01 0.01 0.01 0.01 0.01 0.01 0.00 0.01 0.01 0.01 0.01 0.00 0.01 0.01 0.01 0.01 0.01 0.01 0.02 0.02 0.01 0.01 0.02 0.02 0.02 0.02 0.02 0.02 0.02 0.02 0.01 0.01 0.01 0.01
0.00 0.00 0.01 0.01 0.01 0.01 0.01 0.01 0.01 0.01 0.01 0.01 0.01 0.01 0.01 0.01 0.00 0.01 0.01 0.01 0.01 0.01 0.01 0.01 0.01 0.01 0.01 0.02 0.02 0.01 0.01 0.01 0.02 0.02 0.02 0.01 0.01 0.01 0.01 0.01 0.01 0.01 0.01 0.01
0.00 0.01 0.01 0.01 0.01 0.01 0.01 0.01 0.01 0.01 0.01 0.01 0.01 0.01 0.01 0.01 0.01 0.01 0.01 0.01 0.01 0.01 0.01 0.01 0.01 0.01 0.02 0.02 0.01 0.01 0.01 0.02 0.02 0.02 0.01 0.01 0.01 0.01 0.01 0.01 0.01 0.01 0.01 0.01
0.00 0.01 0.01 0.01 0.01 0.01 0.01 0.01 0.01 0.01 0.01 0.01 0.01 0.01 0.01 0.01 0.01 0.01 0.01 0.01 0.01 0.01 0.01 0.01 0.01 0.02 0.02 0.01 0.01 0.01 0.02 0.02 0.02 0.01 0.01 0.01 0.01 0.01 0.01 0.01 0.01 0.01 0.01 0.01
0.01 0.01 0.01 0.01 0.01 0.01 0.01 0.01 0.01 0.01 0.01 0.01 0.01 0.01 0.01 0.01 0.01 0.01 0.01 0.01 0.01 0.01 0.01 0.01 0.01 0.01 0.01 0.01 0.01 0.01 0.01 0.01 0.01 0.01 0.01 0.01 0.01 0.01 0.01 0.01 0.01 0.01 0.01 0.01
0.01 0.01 0.00 0.01 0.01 0.01 0.01 0.01 0.01 0.01 0.00 0.00 0.00 0.00 0.01 0.01 0.01 0.01 0.01 0.01 0.01 0.01 0.01 0.01 0.01 0.01 0.01 0.01 0.01 0.01 0.01 0.01 0.01 0.01 0.01 0.01 0.01 0.01 0.00 0.00 0.00 0.00 0.00 0.00
0.00 0.00 0.00 0.00 0.00 0.01 0.01 0.01 0.01 0.00 0.00 0.00 0.00 0.01 0.01 0.01 0.01 0.01 0.01 0.01 0.01 0.01 0.01 0.01 0.01 0.01 0.01 0.01 0.01 0.01 0.01 0.01 0.01 0.01 0.01 0.01 0.01 0.01 0.00 0.00 0.00 0.00 0.00 0.00
MSLP
1019.98 1019.88 1019.76 1019.67 1019.63 1019.70 1019.89 1020.23 1020.73 1021.38 1022.16 1023.03 1023.93 1024.81 1025.63 1026.34 1026.92 1027.37 1027.68 1027.88 1028.00 1028.07 1028.12 1028.16 1028.23 1028.31 1028.40 1028.48 1028.53 1028.54 1028.50 1028.39 1028.23 1028.02 1027.77 1027.51 1027.24 1026.97 1026.72 1026.47 1026.21 1025.93 1025.62 1025.27
1019.76 1019.68 1019.61 1019.57 1019.61 1019.76 1020.05 1020.49 1021.11 1021.87 1022.74 1023.69 1024.65 1025.58 1026.41 1027.12 1027.68 1028.09 1028.37 1028.53 1028.62 1028.66 1028.69 1028.73 1028.78 1028.84 1028.91 1028.95 1028.96 1028.91 1028.79 1028.62 1028.39 1028.11 1027.81 1027.51 1027.21 1026.93 1026.66 1026.39 1026.12 1025.83 1025.51 1025.15
1019.74 1019.73 1019.74 1019.81 1019.96 1020.23 1020.64 1021.20 1021.91 1022.76 1023.70 1024.69 1025.67 1026.59 1027.40 1028.07 1028.58 1028.93 1029.15 1029.25 1029.28 1029.27 1029.25 1029.23 1029.23 1029.24 1029.24 1029.21 1029.14 1029.01 1028.82 1028.57 1028.28 1027.95 1027.61 1027.28 1026.96 1026.66 1026.39 1026.12 1025.84 1025.54 1025.21 1024.84
1019.96 1020.06 1020.21 1020.42 1020.71 1021.11 1021.64 1022.30 1023.09 1023.98 1024.95 1025.93 1026.88 1027.76 1028.50 1029.10 1029.54 1029.82 1029.96 1029.99 1029.95 1029.87 1029.78 1029.70 1029.62 1029.55 1029.46 1029.34 1029.18 1028.96 1028.69 1028.37 1028.02 1027.65 1027.28 1026.92 1026.59 1026.29 1026.00 1025.72 1025.44 1025.13 1024.79 1024.42
1020.44 1020.69 1020.99 1021.36 1021.80 1022.32 1022.95 1023.69 1024.51 1025.40 1026.34 1027.27 1028.14 1028.93 1029.58 1030.09 1030.43 1030.63 1030.70 1030.66 1030.56 1030.42 1030.27 1030.11 1029.96 1029.80 1029.62 1029.42 1029.17 1028.87 1028.53 1028.15 1027.75 1027.34 1026.94 1026.57 1026.23 1025.91 1025.61 1025.32 1025.01 1024.69 1024.34 1023.96
1021.16 1021.57 1022.02 1022.54 1023.11 1023.74 1024.43 1025.19 1026.00 1026.85 1027.70 1028.53 1029.29 1029.95 1030.49 1030.88 1031.14 1031.26 1031.26 1031.18 1031.04 1030.86 1030.66 1030.45 1030.24 1030.02 1029.78 1029.50 1029.17 1028.81 1028.41 1027.99 1027.55 1027.12 1026.70 1026.31 1025.95 1025.62 1025.29 1024.97 1024.64 1024.30 1023.93 1023.54
1022.09 1022.63 1023.22 1023.86 1024.52 1025.21 1025.92 1026.66 1027.40 1028.15 1028.88 1029.57 1030.18 1030.70 1031.11 1031.40 1031.57 1031.63 1031.59 1031.48 1031.33 1031.14 1030.93 1030.70 1030.47 1030.21 1029.92 1029.60 1029.23 1028.83 1028.40 1027.94 1027.48 1027.03 1026.59 1026.19 1025.80 1025.44 1025.08 1024.73 1024.37 1023.99 1023.59 1023.19
1023.15 1023.81 1024.50 1025.20 1025.91 1026.61 1027.29 1027.95 1028.59 1029.21 1029.78 1030.30 1030.75 1031.13 1031.41 1031.60 1031.70 1031.71 1031.66 1031.56 1031.41 1031.24 1031.05 1030.84 1030.61 1030.35 1030.05 1029.72 1029.34 1028.92 1028.47 1028.00 1027.53 1027.06 1026.61 1026.17 1025.76 1025.36 1024.97 1024.58 1024.17 1023.76 1023.33 1022.91
1024.28 1025.00 1025.74 1026.47 1027.17 1027.83 1028.43 1028.99 1029.50 1029.95 1030.36 1030.72 1031.01 1031.25 1031.42 1031.53 1031.57 1031.57 1031.52 1031.43 1031.32 1031.18 1031.03 1030.85 1030.65 1030.41 1030.14 1029.81 1029.44 1029.03 1028.58 1028.11 1027.63 1027.15 1026.68 1026.22 1025.78 1025.34 1024.91 1024.47 1024.02 1023.57 1023.12 1022.67
1025.39 1026.15 1026.89 1027.59 1028.24 1028.81 1029.31 1029.74 1030.10 1030.40 1030.66 1030.86 1031.03 1031.15 1031.24 1031.29 1031.30 1031.29 1031.25 1031.19 1031.11 1031.02 1030.91 1030.77 1030.60 1030.40 1030.15 1029.85 1029.50 1029.10 1028.67 1028.20 1027.72 1027.23 1026.75 1026.26 1025.78 1025.30 1024.83 1024.35 1023.86 1023.38 1022.90 1022.43
1026.44 1027.17 1027.87 1028.51 1029.07 1029.54 1029.92 1030.22 1030.45 1030.62 1030.75 1030.84 1030.91 1030.96 1030.99 1031.00 1031.00 1030.98 1030.96 1030.92 1030.87 1030.80 1030.72 1030.61 1030.47 1030.29 1030.07 1029.80 1029.47 1029.09 1028.67 1028.22 1027.74 1027.24 1026.74 1026.22 1025.71 1025.20 1024.68 1024.16 1023.65 1023.14 1022.64 1022.16
1027.37 1028.04 1028.67 1029.21 1029.67 1030.03 1030.30 1030.49 1030.61 1030.69 1030.74 1030.77 1030.79 1030.80 1030.80 1030.80 1030.79 1030.77 1030.75 1030.71 1030.67 1030.60 1030.52 1030.42 1030.29 1030.12 1029.91 1029.65 1029.34 1028.98 1028.57 1028.13 1027.65 1027.14 1026.62 1026.08 1025.54 1024.99 1024.44 1023.90 1023.36 1022.84 1022.33 1021.84
1028.16 1028.76 1029.29 1029.73 1030.09 1030.34 1030.52 1030.63 1030.69 1030.73 1030.74 1030.74 1030.75 1030.75 1030.76 1030.75 1030.74 1030.72 1030.68 1030.62 1030.55 1030.46 1030.35 1030.22 1030.07 1029.89 1029.67 1029.41 1029.11 1028.76 1028.36 1027.93 1027.45 1026.94 1026.40 1025.84 1025.28 1024.70 1024.14 1023.57 1023.03 1022.50 1021.99 1021.50
1028.81 1029.33 1029.76 1030.11 1030.38 1030.55 1030.67 1030.74 1030.77 1030.79 1030.81 1030.83 1030.85 1030.88 1030.89 1030.89 1030.87 1030.83 1030.75 1030.65 1030.53 1030.38 1030.21 1030.03 1029.84 1029.62 1029.38 1029.11 1028.81 1028.47 1028.08 1027.65 1027.17 1026.66 1026.12 1025.55 1024.97 1024.38 1023.80 1023.23 1022.68 1022.15 1021.65 1021.18
1029.37 1029.80 1030.15 1030.42 1030.61 1030.74 1030.82 1030.87 1030.91 1030.94 1030.99 1031.04 1031.10 1031.15 1031.18 1031.18 1031.14 1031.06 1030.94 1030.77 1030.57 1030.35 1030.11 1029.86 1029.60 1029.34 1029.07 1028.78 1028.48 1028.14 1027.76 1027.34 1026.87 1026.36 1025.82 1025.25 1024.66 1024.07 1023.48 1022.91 1022.36 1021.84 1021.35 1020.90
1029.86 1030.22 1030.51 1030.72 1030.87 1030.96 1031.03 1031.08 1031.14 1031.21 1031.29 1031.38 1031.46 1031.53 1031.57 1031.55 1031.49 1031.35 1031.16 1030.92 1030.63 1030.32 1030.00 1029.67 1029.36 1029.05 1028.75 1028.44 1028.13 1027.80 1027.43 1027.02 1026.57 1026.07 1025.54 1024.97 1024.39 1023.80 1023.22 1022.65 1022.11 1021.60 1021.12 1020.68
1030.33 1030.65 1030.89 1031.07 1031.19 1031.27 1031.34 1031.40 1031.48 1031.57 1031.67 1031.78 1031.88 1031.95 1031.97 1031.93 1031.81 1031.62 1031.36 1031.03 1030.66 1030.27 1029.87 1029.48 1029.10 1028.75 1028.42 1028.10 1027.79 1027.47 1027.11 1026.73 1026.30 1025.82 1025.30 1024.75 1024.18 1023.60 1023.02 1022.46 1021.93 1021.42 1020.96 1020.52
1030.82 1031.12 1031.34 1031.50 1031.61 1031.69 1031.76 1031.83 1031.91 1032.00 1032.11 1032.21 1032.29 1032.33 1032.32 1032.23 1032.05 1031.80 1031.46 1031.06 1030.62 1030.15 1029.69 1029.24 1028.82 1028.44 1028.09 1027.77 1027.46 1027.14 1026.81 1026.45 1026.04 1025.59 1025.10 1024.57 1024.01 1023.44 1022.88 1022.32 1021.79 1021.29 1020.82 1020.38
1031.35 1031.64 1031.86 1032.02 1032.13 1032.21 1032.27 1032.33 1032.40 1032.47 1032.54 1032.60 1032.64 1032.62 1032.54 1032.39 1032.15 1031.83 1031.43 1030.97 1030.47 1029.95 1029.44 1028.96 1028.51 1028.11 1027.75 1027.43 1027.12 1026.83 1026.51 1026.17 1025.79 1025.37 1024.90 1024.40 1023.86 1023.31 1022.76 1022.21 1021.68 1021.17 1020.69 1020.22
1031.92 1032.21 1032.44 1032.60 1032.71 1032.78 1032.83 1032.86 1032.88 1032.90 1032.91 1032.90 1032.86 1032.77 1032.62 1032.39 1032.08 1031.70 1031.25 1030.74 1030.21 1029.66 1029.13 1028.63 1028.17 1027.76 1027.40 1027.08 1026.78 1026.49 1026.20 1025.88 1025.53 1025.13 1024.69 1024.22 1023.71 1023.18 1022.64 1022.09 1021.55 1021.03 1020.51 1020.02
1032.48 1032.79 1033.03 1033.20 1033.30 1033.35 1033.36 1033.34 1033.30 1033.25 1033.17 1033.08 1032.94 1032.76 1032.53 1032.23 1031.86 1031.43 1030.94 1030.41 1029.86 1029.30 1028.76 1028.26 1027.80 1027.39 1027.03 1026.71 1026.42 1026.14 1025.86 1025.56 1025.23 1024.87 1024.46 1024.02 1023.53 1023.02 1022.49 1021.95 1021.40 1020.85 1020.30 1019.75
1033.02 1033.33 1033.57 1033.74 1033.82 1033.84 1033.80 1033.72 1033.60 1033.45 1033.28 1033.08 1032.85 1032.59 1032.27 1031.91 1031.49 1031.03 1030.52 1029.99 1029.44 1028.89 1028.36 1027.86 1027.41 1027.00 1026.64 1026.33 1026.04 1025.77 1025.50 1025.22 1024.92 1024.58 1024.21 1023.80 1023.34 1022.86 1022.34 1021.79 1021.23 1020.65 1020.05 1019.45
1033.48 1033.79 1034.02 1034.16 1034.21 1034.18 1034.09 1033.93 1033.73 1033.49 1033.22 1032.92 1032.60 1032.26 1031.88 1031.47 1031.02 1030.54 1030.04 1029.51 1028.98 1028.45 1027.94 1027.45 1027.01 1026.61 1026.26 1025.94 1025.66 1025.40 1025.15 1024.89 1024.61 1024.31 1023.97 1023.59 1023.16 1022.70 1022.19 1021.65 1021.07 1020.45 1019.81 1019.16
1033.85 1034.13 1034.33 1034.44 1034.44 1034.35 1034.19 1033.96 1033.67 1033.34 1032.99 1032.61 1032.22 1031.81 1031.39 1030.95 1030.49 1030.01 1029.51 1029.01 1028.50 1028.00 1027.51 1027.05 1026.63 1026.24 1025.89 1025.58 1025.31 1025.06 1024.82 1024.58 1024.33 1024.06 1023.76 1023.42 1023.03 1022.58 1022.09 1021.54 1020.95 1020.31 1019.62 1018.91
1034.11 1034.36 1034.51 1034.55 1034.50 1034.35 1034.11 1033.81 1033.45 1033.05 1032.62 1032.18 1031.74 1031.29 1030.84 1030.39 1029.93 1029.47 1029.00 1028.52 1028.05 1027.57 1027.12 1026.68 1026.27 1025.90 1025.56 1025.27 1025.00 1024.76 1024.54 1024.33 1024.11 1023.88 1023.61 1023.30 1022.95 1022.53 1022.05 1021.50 1020.89 1020.22 1019.50 1018.74
1034.30 1034.48 1034.56 1034.55 1034.42 1034.21 1033.90 1033.53 1033.11 1032.65 1032.18 1031.70 1031.23 1030.76 1030.30 1029.85 1029.41 1028.97 1028.53 1028.08 1027.64 1027.20 1026.77 1026.35 1025.96 1025.61 1025.28 1025.00 1024.75 1024.53 1024.33 1024.15 1023.96 1023.76 1023.53 1023.25 1022.92 1022.52 1022.05 1021.50 1020.88 1020.19 1019.44 1018.65
1034.43 1034.54 1034.55 1034.46 1034.27 1033.99 1033.63 1033.21 1032.74 1032.25 1031.75 1031.25 1030.76 1030.29 1029.84 1029.40 1028.97 1028.55 1028.14 1027.72 1027.30 1026.88 1026.48 1026.08 1025.71 1025.37 1025.06 1024.79 1024.56 1024.36 1024.18 1024.02 1023.86 1023.69 1023.48 1023.23 1022.92 1022.53 1022.07 1021.52 1020.89 1020.18 1019.41 1018.60
Thickness
5394 5397 5396 5389 5385 5382 5373 5371 5369 5373 5371 5364 5362 5364 5366 5367 5370 5373 5375 5378 5380 5382 5384 5387 5391 5395 5399 5403 5408 5413 5417 5421 5426 5430 5433 5436 5439 5441 5444 5447 5449 5451 5453 5455
5383 5391 5389 5381 5375 5372 5367 5363 5360 5360 5357 5354 5353 5354 5354 5354 5357 5358 5361 5364 5367 5370 5372 5375 5378 5382 5386 5390 5394 5399 5404 5408 5413 5417 5420 5423 5426 5429 5431 5434 5436 5438 5440 5442
5371 5381 5375 5364 5360 5358 5353 5348 5344 5339 5338 5341 5340 5341 5340 5342 5343 5344 5346 5350 5353 5356 5359 5362 5366 5370 5374 5378 5382 5387 5391 5395 5400 5404 5407 5411 5413 5416 5418 5421 5424 5425 5427 5429
5357 5359 5346 5347 5351 5348 5342 5334 5334 5331 5330 5329 5329 5331 5331 5331 5331 5332 5335 5338 5341 5344 5348 5351 5355 5359 5363 5367 5371 5375 5378 5382 5387 5391 5394 5398 5401 5404 5406 5409 5412 5414 5415 5417
5345 5342 5345 5342 5340 5333 5327 5324 5322 5321 5320 5321 5322 5325 5324 5324 5322 5323 5325 5328 5331 5334 5337 5341 5345 5348 5352 5356 5359 5363 5367 5371 5374 5378 5382 5386 5389 5391 5394 5397 5399 5401 5403 5404
5335 5331 5330 5325 5326 5327 5322 5314 5311 5311 5309 5309 5310 5308 5311 5314 5314 5315 5317 5319 5322 5324 5327 5331 5334 5338 5341 5345 5347 5351 5355 5359 5362 5366 5370 5373 5376 5379 5381 5385 5387 5389 5391 5392
5321 5320 5316 5311 5317 5320 5307 5299 5301 5302 5300 5299 5296 5295 5299 5303 5304 5305 5307 5310 5313 5315 5317 5320 5324 5327 5329 5333 5336 5339 5343 5348 5351 5354 5358 5361 5364 5367 5370 5373 5375 5377 5379 5381
5312 5310 5305 5301 5304 5296 5290 5292 5293 5293 5292 5290 5289 5290 5292 5293 5294 5295 5297 5300 5302 5305 5307 5310 5313 5316 5319 5321 5325 5329 5333 5337 5340 5344 5347 5350 5353 5356 5359 5361 5363 5366 5367 5369
5300 5298 5297 5295 5290 5288 5286 5284 5284 5283 5283 5282 5281 5281 5282 5283 5284 5285 5287 5289 5292 5294 5297 5299 5302 5305 5307 5311 5315 5319 5323 5326 5330 5333 5336 5339 5342 5344 5347 5349 5351 5354 5356 5357
5294 5294 5292 5289 5286 5283 5280 5277 5276 5275 5274 5273 5272 5272 5272 5273 5274 5275 5277 5279 5282 5284 5286 5288 5291 5294 5297 5301 5304 5308 5312 5315 5319 5322 5325 5328 5331 5333 5335 5337 5339 5342 5344 5345
5285 5284 5283 5283 5278 5274 5272 5270 5268 5267 5266 5265 5264 5264 5263 5264 5265 5265 5268 5269 5271 5273 5275 5278 5281 5284 5288 5291 5295 5298 5302 5305 5309 5312 5314 5317 5319 5321 5323 5325 5328 5330 5332 5334
5275 5275 5270 5269 5267 5266 5263 5261 5259 5258 5257 5256 5255 5255 5255 5255 5255 5256 5258 5259 5261 5264 5266 5268 5271 5275 5279 5282 5286 5289 5293 5296 5298 5301 5304 5306 5308 5310 5313 5316 5318 5320 5322 5324
5267 5265 5262 5261 5259 5257 5255 5253 5252 5250 5249 5248 5248 5247 5246 5246 5247 5248 5249 5250 5252 5254 5257 5260 5263 5266 5270 5274 5277 5280 5283 5286 5289 5292 5294 5296 5298 5301 5303 5305 5308 5310 5312 5313
5261 5258 5256 5253 5250 5249 5247 5246 5244 5243 5242 5241 5239 5239 5238 5238 5239 5239 5240 5242 5244 5246 5249 5252 5255 5258 5262 5265 5268 5271 5273 5276 5279 5282 5284 5286 5288 5290 5293 5295 5296 5298 5300 5302
5252 5248 5245 5244 5243 5242 5240 5238 5235 5234 5233 5232 5231 5230 5230 5229 5230 5231 5233 5235 5237 5239 5242 5245 5247 5250 5254 5257 5259 5262 5265 5267 5269 5272 5274 5276 5278 5280 5282 5284 5285 5286 5288 5290
5243 5241 5239 5237 5235 5233 5230 5228 5225 5224 5223 5222 5222 5221 5221 5221 5222 5224 5225 5227 5229 5231 5234 5237 5240 5243 5246 5248 5250 5253 5255 5258 5260 5262 5264 5266 5268 5270 5271 5272 5273 5275 5277 5278
5233 5232 5230 5228 5226 5223 5221 5218 5216 5215 5214 5213 5213 5213 5213 5214 5215 5216 5217 5219 5220 5222 5225 5228 5232 5235 5237 5239 5242 5244 5246 5248 5250 5252 5253 5255 5257 5259 5260 5261 5263 5264 5265 5267
5227 5224 5222 5219 5217 5215 5213 5211 5209 5207 5206 5206 5206 5205 5205 5205 5206 5207 5208 5210 5212 5215 5217 5221 5223 5226 5228 5230 5232 5234 5236 5238 5240 5241 5243 5244 5246 5248 5249 5250 5252 5253 5255 5256
5220 5218 5215 5213 5210 5207 5204 5203 5201 5200 5200 5199 5199 5198 5197 5197 5198 5199 5200 5202 5204 5206 5209 5211 5215 5217 5218 5220 5223 5224 5226 5227 5230 5231 5232 5234 5235 5236 5238 5239 5241 5242 5244 5245
5214 5211 5209 5206 5204 5200 5198 5197 5196 5194 5194 5193 5192 5192 5191 5191 5191 5192 5193 5194 5196 5198 5201 5203 5206 5207 5209 5211 5213 5215 5216 5217 5219 5221 5222 5223 5224 5225 5226 5228 5230 5231 5233 5234
5206 5204 5202 5200 5197 5195 5193 5192 5190 5189 5188 5187 5185 5184 5184 5184 5185 5185 5186 5189 5191 5193 5194 5196 5197 5198 5200 5202 5204 5205 5206 5207 5209 5210 5211 5212 5213 5214 5216 5217 5219 5220 5222 5223
5200 5198 5196 5194 5191 5189 5187 5185 5184 5183 5182 5180 5179 5178 5178 5179 5179 5180 5181 5182 5185 5186 5187 5188 5189 5191 5192 5195 5195 5196 5197 5198 5199 5200 5201 5202 5203 5204 5205 5207 5208 5209 5210 5212
5195 5193 5190 5188 5185 5183 5181 5179 5178 5177 5175 5174 5174 5173 5173 5173 5173 5174 5175 5176 5177 5179 5180 5180 5182 5184 5186 5186 5186 5187 5188 5189 5190 5190 5192 5193 5194 5195 5196 5196 5198 5199 5200 5201
5189 5186 5184 5182 5179 5177 5175 5174 5173 5172 5170 5169 5169 5168 5168 5167 5168 5167 5168 5169 5170 5171 5172 5173 5175 5177 5178 5177 5177 5178 5179 5180 5181 5182 5183 5184 5185 5185 5186 5187 5188 5190 5191 5192
5182 5180 5178 5176 5174 5172 5171 5170 5168 5167 5166 5165 5164 5163 5162 5161 5161 5161 5161 5162 5163 5164 5164 5165 5166 5168 5168 5168 5168 5169 5170 5171 5172 5174 5175 5176 5176 5177 5178 5179 5180 5182 5183 5184
5176 5175 5173 5171 5169 5167 5165 5164 5162 5161 5161 5160 5159 5157 5156 5156 5155 5155 5155 5155 5155 5156 5156 5156 5157 5158 5158 5159 5159 5160 5161 5162 5163 5164 5165 5166 5167 5168 5169 5171 5172 5174 5176 5177
5170 5169 5167 5165 5164 5162 5159 5158 5156 5155 5154 5153 5152 5151 5150 5150 5150 5149 5149 5149 5148 5149 5149 5149 5149 5150 5150 5151 5151 5152 5153 5154 5155 5156 5157 5157 5159 5160 5162 5163 5165 5167 5169 5171